COSMOS 2251 DEB

Satellite information

Favourite Embed

Satellite Type and Status

DEBRISIN ORBIT

Key statistics

Satellite COSMOS 2251 DEB at a glance.

Uptime

11813

Days in orbit

Revolutions

≈ 13.5

Per day

Orbit

LEO

Low Earth Orbit

Inclination

74.0

Latest

Satellite identification and parameters

Extended collection of information and parameters for COSMOS 2251 DEB.

Object identification

Identified? True

Debris? True

Object name: COSMOS 2251 DEB

International designator: 1993-036WL

Object number (NORAD): 34615

Object ID (CCSDS): 34615

Country: COMMONWEALTH OF INDEPENDENT STATES (CIS)

Current information (Y/N): Y

RCS size: SMALL

Orbital parameters

Period: 106.501 minutes

Inclination: 74.0075 deg

SMA: 7442.684 km

Apoapsis: 1363.366 km

Periapsis: 765.732 km

RAAN: 22.4247 deg

Eccentricy: 0.04014913

Argument of periapsis: 300.5611 deg

Mean anomaly: 211.1703 deg

Mean motion: 13.52098635 rev/day

Mean motion (dot): 0.00001653 rev/day2

B* drag term: 0.0015355283 1/REarth

Two-line elements (TLE)

Creation date: Oct. 19, 2025, 2:20 a.m.

Reference frame: TEME

Reference center: EARTH

Epoch: Oct. 18, 2025, 4:40 p.m. UTC

TLE line 0: 0 COSMOS 2251 DEB

TLE line 1: 1 34615U 93036WL 25291.69474372 .00001653 00000-0 15355-2 0 9997

TLE line 2: 2 34615 74.0075 22.4247 0401491 300.5611 211.1703 13.52098635820715

Live tracking on map

Real-time ground track for satellite COSMOS 2251 DEB.

In-orbit conjunctions

A list of the most updated potential collisions computed for object COSMOS 2251 DEB.

Target Orbit TCA Probability of collision Miss distance Type
CZ-6A DEB SSO 2024-08-03 11:40:58 0.0001751463 210.0 (m) DEBRIS
METEOR 1-17 DEB LEO 2024-06-22 03:04:10 0.0002998376 140.0 (m) DEBRIS

Associated space launch

Military communications satellite. Destroyed in a collision with Iridium 33.

COSMOS 2251 DEB was lifted into orbit during the mission ‘Kosmos-3M | Strela-2M 51’, on board a Kosmos-3M space rocket.

The launch took place on June 16, 1993, 4:17 a.m. from 132/1 (132L).

For more information about the launch, click the button.

Launch to space Kosmos-3M | Strela-2M 51
Kosmos-3M | Strela-2M 51

Agency: N/A

Status: Launch Successful

Launch date: June 16, 1993, 4:17 a.m. UTC

Rocket: Kosmos-3M

Launch pad: 132/1 (132L)

Location: Plesetsk Cosmodrome, Russian Federation

...

Latest news about this satellite

There are no fresh news available about this satellite. Check back as we update our databases every day.


Newsletter sign-up

Weekly statistics, charts and insights to help you stay on top of the space industry.